Regional Weather Roundup
Issued by NWS

Home | Current Version | Previous Version | Text Only | Print | Product List | Glossary Off
Versions: 1 2 3 4 5 6 7 8 9 10 11 12 13 14 15 16 17 18 19 20 21 22 23 24 25 26 27 28 29 30 31 32 33 34 35 36 37 38 39 40 41 42 43 44 45 46 47 48 49 50

000
ASUS45 KBOU 301607
RWRCO

WEATHER ROUNDUP FOR COLORADO
NATIONAL WEATHER SERVICE DENVER/BOULDER CO
1000 AM MDT MON MAY 30 2016

NOTE: "FAIR" INDICATES FEW OR NO CLOUDS BELOW 12000 FEET WITH NO
SIGNIFICANT WEATHER AND/OR OBSTRUCTIONS TO VISIBILITY.

COZ001>005-013-030-031-301700-
...NORTHWEST COLORADO...

CITY           SKY/WX    TMP DP  RH WIND       PRES   REMARKS
CRAIG          FAIR      60  42  51 NE3       30.16F
HAYDEN         FAIR      55  37  50 W7        30.18S
MEEKER         FAIR      58  40  51 SW6       30.17S
MOUNT WERNER   NOT AVBL
STEAMBOAT SPGS FAIR      53  37  56 CALM      30.18S
WALDEN         NOT AVBL
$$

COZ006>008-011-301700-
...WEST CENTRAL VALLEYS...

CITY           SKY/WX    TMP DP  RH WIND       PRES   REMARKS
GRAND JUNCTION FAIR      67  37  33 E3        30.07F
MONTROSE       FAIR      64  35  34 NW6       30.12F
EAGLE          SUNNY     55  34  44 CALM      30.18F
RIFLE          FAIR      62  37  39 VRB3      30.11F
DELTA          FAIR      66  33  29 CALM      30.09F
NUCLA          FAIR      63  32  31 NW3       30.17S
$$

COZ017>023-064>068-301700-
...SOUTHWEST COLORADO...

CITY           SKY/WX    TMP DP  RH WIND       PRES   REMARKS
DURANGO        FAIR      65  28  24 VRB3      30.18S
CORTEZ         FAIR      69  24  18 SW6       30.13S
PAGOSA SPRINGS FAIR      61  21  21 CALM      30.24S
TELLURIDE      FAIR      60  19  20 S5        30.29S
WOLF CREEK PAS FAIR      43  21  42 S10G16    30.48F
$$

COZ009-010-012-014-032>034-037-058>063-301700-
...CENTRAL COLORADO...

CITY           SKY/WX    TMP DP  RH WIND       PRES   REMARKS
ASPEN          FAIR      58  34  40 N9        30.18S
BUENA VISTA    FAIR      59  24  26 SE3       30.21F
COPPER MTN     NOT AVBL
BERTHOUD PASS  FAIR      37  28  70 W16G33    30.42F
COTTONWOOD PAS FAIR      59  27  29 SE3       30.31F
GUNNISON       FAIR      52  32  46 CALM      30.25F
KREMMLING      FAIR      54  36  50 CALM      30.20F
LEADVILLE      FAIR      53  18  25 S14       30.28F
MONARCH PASS   FAIR      45  23  42 SW16G23   30.53F
SALIDA         FAIR      60  29  31 CALM      30.27F
SUNLIGHT       FAIR      50  28  43 CALM      30.38F
WILKERSON PASS FAIR      50  23  34 SW5       30.41F
$$

COZ069>075-301700-
...SAN LUIS VALLEY/SANGRE DE CRISTO MOUNTAINS...

CITY           SKY/WX    TMP DP  RH WIND       PRES   REMARKS
ALAMOSA        FAIR      58  36  43 E7        30.22F
LA VETA PASS   FAIR      54  32  43 S6        30.35F
SAGUACHE       FAIR      57  32  38 S8        30.25F
$$

COZ035-036-038>040-301700-
...NORTHERN COLORADO FRONT RANGE...

CITY           SKY/WX    TMP DP  RH WIND       PRES   REMARKS
DENVER INTL AP FAIR      68  43  40 W3        30.03F
DMNS CITY PARK   N/A     73  35  25 E1G8      30.01F
AURORA         MOSUNNY   70  38  31 SW5       30.04F
FRONT RANGE AP MOSUNNY   68  41  37 N5        30.05F
ERIE MUNI ARPT FAIR      67  44  42 CALM      30.02F
BOULDER MUN AP FAIR      68  41  37 CALM      30.01F
CENTENNIAL     FAIR      70  35  27 S5        30.05F
BROOMFIELD     MOSUNNY   66  39  37 CALM      30.05F
FORT COLLINS   FAIR      59  48  67 CALM      30.02F
LONGMONT       FAIR      69  44  39 CALM      30.03F
$$

COZ041-046-047-076>085-087-088-301700-
...PIKES PEAK/PALMER DIVIDE AND SOUTHERN FOOTHILLS...

CITY           SKY/WX    TMP DP  RH WIND       PRES   REMARKS
COLO. SPRINGS  FAIR      65  40  39 VRB3      30.10F
A. F. ACADEMY  FAIR      66  37  34 VRB2      30.10F
SCHRIEVER AFB  NOT AVBL
ELLICOTT       NOT AVBL
FALCON         FAIR      67  37  33 CALM      30.14F
FORT CARSON    FAIR      65  45  46 S2        30.07F
LIMON          FAIR      65  51  60 SE5       30.06F
MONUMENT HILL  FAIR      68  34  28 SW3       30.14F
TRINIDAD       FAIR      69  39  33 VRB3      30.08F
$$

COZ042>045-048>051-090-091-301700-
...NORTHEAST COLORADO...

CITY           SKY/WX    TMP DP  RH WIND       PRES   REMARKS
GREELEY ARPT   FAIR      66  48  52 SE6       30.01F
AKRON          FAIR      68  49  50 W5        30.02F
BURLINGTON     FAIR      70  51  51 SW12      30.01F
WRAY           NOT AVBL
STERLING       FAIR      68  54  60 CALM      29.97F
HOLYOKE        FAIR      73  52  46 S7        30.00S
FORT MORGAN    FAIR      67  48  50 SW5       30.02F
$$

COZ086-089-092>099-301700-
...SOUTHEAST COLORADO...

CITY           SKY/WX    TMP DP  RH WIND       PRES   REMARKS
PUEBLO         FAIR      67  48  50 SE3       30.02F
LA JUNTA       FAIR      66  49  54 SW6       30.02F
LAMAR          FAIR      74  53  48 E7        29.98F
SPRINGFIELD      N/A     70  53  54 SW16G28   30.03F
$$



USA.gov is the U.S. government's official web portal to all federal, state and local government web resources and services.